This is the latest recevied weather packets stored in our database for station/object KD4EED. If no packets are shown the sender has not sent any weather packets the latest 10 day(s).
| Time | Temp. | Humidity | Pressure | Rain* | Wind** | Luminosity | Snow |
|---|---|---|---|---|---|---|---|
| 1777414346 | 21.67° C | 49% | 1014.3 hPa | - | - | 679 W/m² | - |
| 1777414041 | 22.22° C | 48% | 1014.3 hPa | - | - | 690 W/m² | - |
| 1777413741 | 21.67° C | 47% | 1014 hPa | - | - | 694 W/m² | - |
| 1777413437 | 21.67° C | 47% | 1014.3 hPa | - | - | 704 W/m² | - |
| 1777413134 | 21.67° C | 47% | 1014.2 hPa | - | - | 703 W/m² | - |
| 1777412829 | 21.67° C | 46% | 1014.3 hPa | - | - | 705 W/m² | - |
| 1777412528 | 21.67° C | 47% | 1014.3 hPa | - | - | 707 W/m² | - |
| 1777412225 | 22.22° C | 45% | 1014.5 hPa | - | - | 707 W/m² | - |
| 1777411922 | 22.22° C | 47% | 1014.5 hPa | - | - | 713 W/m² | - |
| 1777411621 | 21.67° C | 46% | 1014.6 hPa | - | - | 718 W/m² | - |
| 1777411315 | 21.67° C | 45% | 1014.5 hPa | - | - | 728 W/m² | - |
| 1777411015 | 22.22° C | 46% | 1014.6 hPa | - | - | 735 W/m² | - |
| 1777410715 | 22.22° C | 46% | 1014.6 hPa | - | - | 740 W/m² | - |
| 1777410409 | 22.22° C | 45% | 1014.6 hPa | - | - | 752 W/m² | - |
| 1777410108 | 21.67° C | 47% | 1014.7 hPa | - | - | 760 W/m² | - |
| 1777409803 | 22.22° C | 45% | 1014.6 hPa | - | - | 766 W/m² | - |
| 1777409500 | 22.22° C | 47% | 1014.6 hPa | - | - | 773 W/m² | - |
| 1777409195 | 21.67° C | 49% | 1014.6 hPa | - | - | 785 W/m² | - |
| 1777408892 | 21.67° C | 46% | 1014.7 hPa | - | - | 792 W/m² | - |
| 1777408588 | 21.67° C | 49% | 1014.7 hPa | - | - | 800 W/m² | - |
| 1777408284 | 21.67° C | 45% | 1014.6 hPa | - | - | 807 W/m² | - |
| 1777407984 | 21.67° C | 46% | 1014.6 hPa | - | - | 811 W/m² | - |
| 1777407682 | 21.67° C | 45% | 1014.7 hPa | - | - | 814 W/m² | - |
| 1777407382 | 22.22° C | 44% | 1014.7 hPa | - | - | 818 W/m² | - |
| 1777407082 | 22.22° C | 43% | 1014.6 hPa | - | - | 820 W/m² | - |
* Rain since midnight (hover to see other rain measurements)
** Current wind speed in m/s (hover to see current wind gust speed)